Regional Weather Roundup
Issued by NWS

Home | Current Version | Previous Version | Text Only | Print | Product List | Glossary On
Versions: 1 2 3 4 5 6 7 8 9 10 11 12 13 14 15 16 17 18 19 20 21 22 23 24 25 26 27 28 29 30 31 32 33 34 35 36 37 38 39 40 41 42 43 44 45 46 47 48 49 50
000
ASUS43 KDTX 271610
RWRMI
MICHIGAN HOURLY REGIONAL WEATHER ROUNDUP
NATIONAL WEATHER SERVICE DETROIT/PONTIAC MI
1200 PM EDT FRI MAR 27 2015

NOTE: "FAIR" INDICATES FEW OR NO CLOUDS BELOW 12,000 FEET WITH NO
SIGNIFICANT WEATHER AND/OR OBSTRUCTION TO VISIBILITY.

MIZ047>049-052>055-059>063-066>070-074>076-081>083-271700-
SOUTHEAST LOWER MICHIGAN

CITY           SKY/WX    TMP DP  RH WIND       PRES   REMARKS
ADRIAN         CLOUDY    26  13  57 N14       30.03S
ALMA           MOSUNNY   25  -1  32 N14G23    30.08S
ANN ARBOR      LGT SNOW  25  15  66 N13       30.02S
BAD AXE        LGT SNOW  19  11  74 N18G25    30.04S
DETROIT CITY   CLOUDY    27  14  58 N10       30.01S
DETROIT        FLURRIES  27  14  58 N10       30.02S
FLINT          LGT SNOW  22  15  75 N13       30.05R VSB 1
GROSSE ILE     CLOUDY    27  14  59 NW16      30.00S
HILLSDALE      CLOUDY    24   9  51 NW14      30.01S
HOWELL         LGT SNOW  23  13  65 N10       30.03S

CITY           SKY/WX    TMP DP  RH WIND       PRES   REMARKS
JACKSON        CLOUDY    22  10  60 N15       30.03S
LAMBERTVILLE   CLOUDY    28  16  59 N10       30.03S
LANSING        CLOUDY    22   7  52 N12       30.07R
LAPEER         NOT AVBL
MASON          CLOUDY    22   7  53 N12G20    30.04S
MONROE         CLOUDY    27  16  63 N12       30.01S
MT. CLEMENS    LGT SNOW  25  14  63 N22       29.98R
PONTIAC        LGT SNOW  22  15  75 NW16G28   30.00R
PORT HOPE        N/A     20  11  68 N22G29    30.03S
PORT HURON     LGT SNOW  23  16  74 N13G22    30.00S
TRI CITIES     CLOUDY    24   7  48 N14G22    30.07S
YPSILANTI      CLOUDY    29  13  51 N17       30.02S
$$
MIZ043>046-050>051-056>058-064>065-071>073-077>080-271700-
SOUTHWEST LOWER MICHIGAN

CITY           SKY/WX    TMP DP  RH WIND       PRES   REMARKS
BATTLE CREEK   SUNNY     27  -1  30 N18G24    30.05F
BENTON HARBOR  SUNNY     25   6  44 NE15G26   30.12R
BIG RAPIDS     PTSUNNY   20   3  47 N10G18    30.08S
COLDWATER      CLOUDY    23   7  48 N15G21    30.05R
HOLLAND        SUNNY     27   2  34 N13G22    30.12S
GRAND RAPIDS   MOSUNNY   25   1  35 NW13      30.09S
KALAMAZOO      MOSUNNY   27   1  32 N20G25    30.08S
MARSHALL       CLOUDY    23   5  46 NW5       30.04F
MUSKEGON       MOSUNNY   27   2  34 N18G29    30.14S
$$
MIZ016>042-271700-
NORTHERN LOWER MICHIGAN

CITY           SKY/WX    TMP DP  RH WIND       PRES   REMARKS
ALPENA         CLOUDY    13   4  67 NW16G24   30.12R WCI  -3
BEAVER ISLAND  SUNNY     12   0  57 N13G18    30.20S WCI  -2
BELLAIRE       MOSUNNY   13   2  59 NW5       30.17S
CADILLAC       PTSUNNY   17   4  56 NW17      30.06F
CHARLEVOIX     SUNNY     10   2  72 N14       30.21S WCI  -6
FRANKFORT      CLOUDY    20   6  55 N12G20    30.19R
GAYLORD        SUNNY     13  -2  51 N9        30.06S
GRAYLING       SUNNY     17  -2  44 N9G17     30.08R
HARBOR SPRINGS SUNNY     13   1  59 NW9       30.16R
HOUGHTON LAKE  MOSUNNY   18  -1  43 NW16      30.06F
MANISTEE       PTSUNNY   19   3  49 N15G24    30.17R
OSCODA         CLOUDY    21   8  58 N16       30.06S
PELLSTON       SUNNY     12   0  58 N9        30.17S
TRAVERSE CITY  PTSUNNY   14   6  70 N14       30.17R WCI  -1
$$
MIZ007>008-015-271700-
EASTERN UPPER MICHIGAN

CITY           SKY/WX    TMP DP  RH WIND       PRES   REMARKS
KINROSS        SUNNY     10   0  61 NW12      30.16F WCI  -4
MACKINAC ISLAN SUNNY     12  -3  50 N14G21    30.16S WCI  -3
NEWBERRY       SUNNY      9  -2  62 NW12G17   30.19S WCI  -6
S. S. MARIE    SUNNY     12  -4  48 NW8       30.16F
$$
MIZ004>006-011>014-085-271700-
CENTRAL UPPER MICHIGAN

CITY           SKY/WX    TMP DP  RH WIND       PRES   REMARKS
MANISTIQUE     SUNNY     13   1  58 N10G23    30.21F WCI  -1
ESCANABA       MOSUNNY   18   1  49 N13G18    30.23F
MENOMINEE      MOSUNNY   19   5  53 N14       30.23S
SAWYER-GWINN   PTSUNNY   10   3  72 N16       30.21R WCI  -7
$$
MIZ001>003-009>011-084-271700-
WESTERN UPPER MICHIGAN

CITY           SKY/WX    TMP DP  RH WIND       PRES   REMARKS
IRON MOUNTAIN  SUNNY     17   1  49 N13       30.20S
HOUGHTON       SUNNY     16   3  56 NE3       30.24F
COPPER HARBOR    N/A     13   0  56 E6        30.30S
IRONWOOD       SUNNY     19   9  63 N9        30.21S
$$

ABBREVIATIONS USED IN REMARKS
   TC - TEMPERATURE IN CELSIUS
  WCI - WIND CHILL INDEX
   HX - HEAT INDEX
  VSB - VISIBILITY



USA.gov is the U.S. government's official web portal to all federal, state and local government web resources and services.